Time,TemperatureF,DewpointF,PressureIn,WindDirection,WindDirectionDegrees,WindSpeedMPH,WindSpeedGustMPH,Humidity,HourlyPrecipIn,Conditions,Clouds,dailyrainin,SoftwareType,DateUTC
2013-02-18 00:00:00,59.4,4.3,29.88,North,0,8.5,17.4,11,0.00,,,0.00,WUHU216HW,2013-02-18 07:00:00,
2013-02-18 00:05:00,59.2,4.2,29.88,NNW,338,5.4,15.7,11,0.00,,,0.00,WUHU216HW,2013-02-18 07:05:00,
2013-02-18 00:10:00,59.0,4.1,29.88,NNW,338,12.5,15.7,11,0.00,,,0.00,WUHU216HW,2013-02-18 07:10:00,
2013-02-18 00:15:00,59.0,4.1,29.88,WNW,293,11.4,14.5,11,0.00,,,0.00,WUHU216HW,2013-02-18 07:15:00,
2013-02-18 00:20:00,58.9,4.0,29.89,West,270,12.5,16.8,11,0.00,,,0.00,WUHU216HW,2013-02-18 07:20:00,
2013-02-18 00:25:00,58.7,5.3,29.88,NNW,338,8.9,16.8,12,0.00,,,0.00,WUHU216HW,2013-02-18 07:25:00,
2013-02-18 00:30:00,58.3,5.0,29.88,NNW,338,9.8,15.7,12,0.00,,,0.00,WUHU216HW,2013-02-18 07:30:00,
2013-02-18 00:35:00,58.1,4.9,29.89,WNW,293,12.3,13.9,12,0.00,,,0.00,WUHU216HW,2013-02-18 07:35:00,
2013-02-18 00:40:00,58.0,4.8,29.89,WNW,293,6.3,13.9,12,0.00,,,0.00,WUHU216HW,2013-02-18 07:40:00,
2013-02-18 00:45:00,58.0,4.8,29.90,NW,315,10.3,15.7,12,0.00,,,0.00,WUHU216HW,2013-02-18 07:45:00,
2013-02-18 00:50:00,57.8,4.6,29.90,NW,315,8.3,20.1,12,0.00,,,0.00,WUHU216HW,2013-02-18 07:50:00,
2013-02-18 00:55:00,57.6,4.5,29.90,West,270,7.8,20.1,12,0.00,,,0.00,WUHU216HW,2013-02-18 07:55:00,
2013-02-18 01:00:00,57.1,4.1,29.90,NW,315,7.4,13.0,12,0.00,,,0.00,WUHU216HW,2013-02-18 08:00:00,
2013-02-18 01:05:00,56.9,4.0,29.90,NNW,338,8.7,16.1,12,0.00,,,0.00,WUHU216HW,2013-02-18 08:05:00,
2013-02-18 01:10:00,56.7,5.3,29.90,WSW,248,11.0,16.1,13,0.00,,,0.00,WUHU216HW,2013-02-18 08:10:00,
2013-02-18 01:15:00,56.5,5.2,29.90,North,0,7.4,14.3,13,0.00,,,0.00,WUHU216HW,2013-02-18 08:15:00,
2013-02-18 01:20:00,56.5,5.2,29.90,North,0,9.2,16.3,13,0.00,,,0.00,WUHU216HW,2013-02-18 08:20:00,
2013-02-18 01:25:00,56.5,5.2,29.91,West,270,8.3,16.3,13,0.00,,,0.00,WUHU216HW,2013-02-18 08:25:00,
2013-02-18 01:30:00,56.5,5.2,29.91,WNW,293,10.3,16.1,13,0.00,,,0.00,WUHU216HW,2013-02-18 08:30:00,
2013-02-18 01:35:00,56.5,5.2,29.91,NW,315,6.7,15.2,13,0.00,,,0.00,WUHU216HW,2013-02-18 08:35:00,
2013-02-18 01:40:00,56.2,8.0,29.91,WNW,293,8.5,16.3,15,0.00,,,0.00,WUHU216HW,2013-02-18 08:40:00,
2013-02-18 01:45:00,56.2,8.0,29.91,WNW,293,10.5,17.4,15,0.00,,,0.00,WUHU216HW,2013-02-18 08:45:00,
2013-02-18 01:50:00,56.0,7.8,29.91,North,0,6.3,17.4,15,0.00,,,0.00,WUHU216HW,2013-02-18 08:50:00,
2013-02-18 01:55:00,55.8,7.7,29.91,WNW,293,12.1,15.2,15,0.00,,,0.00,WUHU216HW,2013-02-18 08:55:00,
2013-02-18 02:00:00,55.8,7.7,29.92,WNW,293,6.3,15.2,15,0.00,,,0.00,WUHU216HW,2013-02-18 09:00:00,
2013-02-18 02:05:00,55.8,7.7,29.92,NW,315,9.4,13.6,15,0.00,,,0.00,WUHU216HW,2013-02-18 09:05:00,
2013-02-18 02:10:00,55.6,7.7,29.91,WSW,248,7.4,16.1,15,0.00,,,0.00,WUHU216HW,2013-02-18 09:10:00,
2013-02-18 02:15:00,55.8,9.3,29.91,NW,315,9.4,16.1,16,0.00,,,0.00,WUHU216HW,2013-02-18 09:15:00,
2013-02-18 02:20:00,55.6,9.2,29.91,NNE,23,12.3,13.4,16,0.00,,,0.00,WUHU216HW,2013-02-18 09:20:00,
2013-02-18 02:25:00,55.6,9.2,29.92,NNW,338,4.5,13.4,16,0.00,,,0.00,WUHU216HW,2013-02-18 09:25:00,
2013-02-18 02:30:00,55.8,9.3,29.91,North,0,11.4,14.3,16,0.00,,,0.00,WUHU216HW,2013-02-18 09:30:00,
2013-02-18 02:35:00,55.8,9.3,29.91,NW,315,9.6,19.0,16,0.00,,,0.00,WUHU216HW,2013-02-18 09:35:00,
2013-02-18 02:40:00,55.4,9.0,29.91,WNW,293,13.0,19.0,16,0.00,,,0.00,WUHU216HW,2013-02-18 09:40:00,
2013-02-18 02:45:00,54.9,8.6,29.91,NW,315,6.9,13.0,16,0.00,,,0.00,WUHU216HW,2013-02-18 09:45:00,
2013-02-18 02:50:00,55.1,10.3,29.91,NW,315,13.4,16.3,17,0.00,,,0.00,WUHU216HW,2013-02-18 09:50:00,
2013-02-18 02:55:00,55.1,10.3,29.92,North,0,15.0,16.3,17,0.00,,,0.00,WUHU216HW,2013-02-18 09:55:00,
2013-02-18 03:00:00,55.1,10.3,29.92,NW,315,17.0,17.0,17,0.00,,,0.00,WUHU216HW,2013-02-18 10:00:00,
2013-02-18 03:05:00,55.1,10.3,29.92,WNW,293,10.7,17.0,17,0.00,,,0.00,WUHU216HW,2013-02-18 10:05:00,
2013-02-18 03:10:00,54.9,10.1,29.92,NNW,338,11.9,17.0,17,0.00,,,0.00,WUHU216HW,2013-02-18 10:10:00,
2013-02-18 03:15:00,54.4,8.1,29.92,NW,315,8.5,15.4,16,0.00,,,0.00,WUHU216HW,2013-02-18 10:15:00,
2013-02-18 03:20:00,54.2,7.9,29.92,NNW,338,7.6,14.1,16,0.00,,,0.00,WUHU216HW,2013-02-18 10:20:00,
2013-02-18 03:25:00,54.0,7.7,29.93,NNW,338,9.8,14.1,16,0.00,,,0.00,WUHU216HW,2013-02-18 10:25:00,
2013-02-18 03:30:00,54.0,7.7,29.93,NNW,338,15.4,15.4,16,0.00,,,0.00,WUHU216HW,2013-02-18 10:30:00,
2013-02-18 03:35:00,54.2,9.5,29.93,WSW,248,10.3,15.4,17,0.00,,,0.00,WUHU216HW,2013-02-18 10:35:00,
2013-02-18 03:40:00,53.8,9.1,29.93,NNW,338,10.3,14.5,17,0.00,,,0.00,WUHU216HW,2013-02-18 10:40:00,
2013-02-18 03:45:00,53.5,8.8,29.92,NNW,338,10.5,14.5,17,0.00,,,0.00,WUHU216HW,2013-02-18 10:45:00,
2013-02-18 03:50:00,53.5,8.8,29.93,NNW,338,9.8,15.0,17,0.00,,,0.00,WUHU216HW,2013-02-18 10:50:00,
2013-02-18 03:55:00,53.3,8.6,29.93,WNW,293,11.0,15.0,17,0.00,,,0.00,WUHU216HW,2013-02-18 10:55:00,
2013-02-18 04:00:00,53.3,8.6,29.93,West,270,8.5,12.8,17,0.00,,,0.00,WUHU216HW,2013-02-18 11:00:00,
2013-02-18 04:05:00,53.6,9.0,29.93,NW,315,7.6,17.2,17,0.00,,,0.00,WUHU216HW,2013-02-18 11:05:00,
2013-02-18 04:10:00,53.6,9.0,29.93,North,0,10.5,17.2,17,0.00,,,0.00,WUHU216HW,2013-02-18 11:10:00,
2013-02-18 04:15:00,53.8,9.1,29.93,West,270,8.1,16.3,17,0.00,,,0.00,WUHU216HW,2013-02-18 11:15:00,
2013-02-18 04:20:00,53.3,8.6,29.93,NW,315,10.5,18.6,17,0.00,,,0.00,WUHU216HW,2013-02-18 11:20:00,
2013-02-18 04:25:00,53.1,8.6,29.94,NNW,338,12.1,18.6,17,0.00,,,0.00,WUHU216HW,2013-02-18 11:25:00,
2013-02-18 04:30:00,53.1,8.6,29.94,NNW,338,12.1,13.4,17,0.00,,,0.00,WUHU216HW,2013-02-18 11:30:00,
2013-02-18 04:35:00,52.9,8.4,29.94,WNW,293,7.4,18.1,17,0.00,,,0.00,WUHU216HW,2013-02-18 11:35:00,
2013-02-18 04:40:00,52.9,8.4,29.94,WNW,293,8.5,18.1,17,0.00,,,0.00,WUHU216HW,2013-02-18 11:40:00,
2013-02-18 04:45:00,53.1,8.6,29.94,WNW,293,6.9,19.2,17,0.00,,,0.00,WUHU216HW,2013-02-18 11:45:00,
2013-02-18 04:50:00,52.9,8.4,29.94,NW,315,8.3,19.2,17,0.00,,,0.00,WUHU216HW,2013-02-18 11:50:00,
2013-02-18 04:55:00,52.9,8.4,29.94,WNW,293,9.2,17.9,17,0.00,,,0.00,WUHU216HW,2013-02-18 11:55:00,
2013-02-18 05:00:00,52.7,8.3,29.94,WNW,293,10.3,17.9,17,0.00,,,0.00,WUHU216HW,2013-02-18 12:00:00,
2013-02-18 05:05:00,52.6,9.6,29.94,North,0,12.5,14.1,18,0.00,,,0.00,WUHU216HW,2013-02-18 12:05:00,
2013-02-18 05:10:00,52.7,8.3,29.95,NNW,338,9.8,17.2,17,0.00,,,0.00,WUHU216HW,2013-02-18 12:10:00,
2013-02-18 05:15:00,52.6,9.6,29.95,NW,315,14.1,17.2,18,0.00,,,0.00,WUHU216HW,2013-02-18 12:15:00,
2013-02-18 05:20:00,52.7,9.7,29.95,NW,315,8.5,15.4,18,0.00,,,0.00,WUHU216HW,2013-02-18 12:20:00,
2013-02-18 05:25:00,52.6,9.6,29.95,NW,315,7.6,15.4,18,0.00,,,0.00,WUHU216HW,2013-02-18 12:25:00,
2013-02-18 05:30:00,52.6,9.6,29.95,NNW,338,12.3,15.0,18,0.00,,,0.00,WUHU216HW,2013-02-18 12:30:00,
2013-02-18 05:35:00,52.2,9.4,29.95,West,270,9.6,15.0,18,0.00,,,0.00,WUHU216HW,2013-02-18 12:35:00,
2013-02-18 05:40:00,52.2,9.4,29.95,NNW,338,9.2,19.0,18,0.00,,,0.00,WUHU216HW,2013-02-18 12:40:00,
2013-02-18 05:45:00,51.8,9.0,29.95,WNW,293,5.8,19.0,18,0.00,,,0.00,WUHU216HW,2013-02-18 12:45:00,
2013-02-18 05:50:00,51.8,9.0,29.95,NW,315,8.5,17.4,18,0.00,,,0.00,WUHU216HW,2013-02-18 12:50:00,
2013-02-18 05:55:00,51.5,8.7,29.96,West,270,14.3,17.4,18,0.00,,,0.00,WUHU216HW,2013-02-18 12:55:00,
2013-02-18 06:00:00,51.8,9.0,29.96,WNW,293,9.4,16.1,18,0.00,,,0.00,WUHU216HW,2013-02-18 13:00:00,
2013-02-18 06:05:00,52.2,9.4,29.96,WNW,293,8.1,19.2,18,0.00,,,0.00,WUHU216HW,2013-02-18 13:05:00,
2013-02-18 06:10:00,52.6,9.6,29.96,West,270,16.1,19.2,18,0.00,,,0.00,WUHU216HW,2013-02-18 13:10:00,
2013-02-18 06:15:00,52.6,9.6,29.96,WNW,293,10.7,17.9,18,0.00,,,0.00,WUHU216HW,2013-02-18 13:15:00,
2013-02-18 06:20:00,52.0,9.2,29.96,NW,315,13.4,15.0,18,0.00,,,0.00,WUHU216HW,2013-02-18 13:20:00,
2013-02-18 06:25:00,51.7,8.9,29.97,NNE,23,8.5,18.3,18,0.00,,,0.00,WUHU216HW,2013-02-18 13:25:00,
2013-02-18 06:30:00,51.5,8.7,29.98,NW,315,8.5,18.3,18,0.00,,,0.00,WUHU216HW,2013-02-18 13:30:00,
2013-02-18 06:35:00,51.8,9.0,29.98,SSW,203,6.5,11.4,18,0.00,,,0.00,WUHU216HW,2013-02-18 13:35:00,
2013-02-18 06:40:00,51.8,10.5,29.99,NNW,338,3.4,11.4,19,0.00,,,0.00,WUHU216HW,2013-02-18 13:40:00,
2013-02-18 06:45:00,52.0,9.2,29.99,WSW,248,10.5,10.5,18,0.00,,,0.00,WUHU216HW,2013-02-18 13:45:00,
2013-02-18 06:50:00,52.2,9.4,30.00,NW,315,2.0,11.6,18,0.00,,,0.00,WUHU216HW,2013-02-18 13:50:00,
2013-02-18 06:55:00,51.8,9.0,30.00,North,0,2.2,11.6,18,0.00,,,0.00,WUHU216HW,2013-02-18 13:55:00,
2013-02-18 07:00:00,51.5,10.3,30.01,ENE,68,1.8,8.1,19,0.00,,,0.00,WUHU216HW,2013-02-18 14:00:00,
2013-02-18 07:05:00,50.8,9.7,30.01,North,0,0.4,8.1,19,0.00,,,0.00,WUHU216HW,2013-02-18 14:05:00,
2013-02-18 07:10:00,50.0,10.6,30.01,East,90,1.6,3.4,20,0.00,,,0.00,WUHU216HW,2013-02-18 14:10:00,
2013-02-18 07:15:00,49.7,10.3,30.02,NNW,338,0.2,2.9,20,0.00,,,0.00,WUHU216HW,2013-02-18 14:15:00,
2013-02-18 07:20:00,49.5,10.2,30.03,ENE,68,2.2,2.5,20,0.00,,,0.00,WUHU216HW,2013-02-18 14:20:00,
2013-02-18 07:25:00,49.7,10.3,30.03,NE,45,4.3,5.4,20,0.00,,,0.00,WUHU216HW,2013-02-18 14:25:00,
2013-02-18 07:30:00,49.7,11.3,30.03,NE,45,3.1,5.4,21,0.00,,,0.00,WUHU216HW,2013-02-18 14:30:00,
2013-02-18 07:35:00,49.9,11.3,30.03,ENE,68,2.5,5.4,21,0.00,,,0.00,WUHU216HW,2013-02-18 14:35:00,
2013-02-18 07:40:00,50.2,10.8,30.04,NW,315,0.2,4.0,20,0.00,,,0.00,WUHU216HW,2013-02-18 14:40:00,
2013-02-18 07:45:00,50.8,12.2,30.04,NW,315,0.7,4.0,21,0.00,,,0.00,WUHU216HW,2013-02-18 14:45:00,
2013-02-18 07:50:00,51.1,11.5,30.04,NNE,23,4.0,7.4,20,0.00,,,0.00,WUHU216HW,2013-02-18 14:50:00,
2013-02-18 07:55:00,51.3,11.6,30.04,North,0,4.9,7.4,20,0.00,,,0.00,WUHU216HW,2013-02-18 14:55:00,
2013-02-18 08:00:00,51.7,11.9,30.04,East,90,1.3,5.4,20,0.00,,,0.00,WUHU216HW,2013-02-18 15:00:00,
2013-02-18 08:05:00,52.2,12.3,30.04,North,0,0.2,3.8,20,0.00,,,0.00,WUHU216HW,2013-02-18 15:05:00,
2013-02-18 08:10:00,52.6,12.6,30.05,NNW,338,2.5,3.8,20,0.00,,,0.00,WUHU216HW,2013-02-18 15:10:00,
2013-02-18 08:15:00,52.9,9.9,30.05,NNE,23,2.5,3.4,18,0.00,,,0.00,WUHU216HW,2013-02-18 15:15:00,
2013-02-18 08:20:00,53.5,13.3,30.05,NNE,23,2.5,3.4,20,0.00,,,0.00,WUHU216HW,2013-02-18 15:20:00,
2013-02-18 08:25:00,53.6,10.4,30.04,West,270,5.1,9.8,18,0.00,,,0.00,WUHU216HW,2013-02-18 15:25:00,
2013-02-18 08:30:00,53.8,10.6,30.05,NNW,338,4.0,9.8,18,0.00,,,0.00,WUHU216HW,2013-02-18 15:30:00,
2013-02-18 08:35:00,54.4,11.1,30.06,WNW,293,3.8,8.9,18,0.00,,,0.00,WUHU216HW,2013-02-18 15:35:00,
2013-02-18 08:40:00,54.4,11.1,30.06,WNW,293,4.7,8.9,18,0.00,,,0.00,WUHU216HW,2013-02-18 15:40:00,
2013-02-18 08:45:00,54.7,11.4,30.06,North,0,10.5,10.5,18,0.00,,,0.00,WUHU216HW,2013-02-18 15:45:00,
2013-02-18 08:50:00,55.3,11.9,30.06,NW,315,2.5,10.5,18,0.00,,,0.00,WUHU216HW,2013-02-18 15:50:00,
2013-02-18 08:55:00,55.4,12.1,30.06,NW,315,1.8,9.2,18,0.00,,,0.00,WUHU216HW,2013-02-18 15:55:00,
2013-02-18 09:00:00,56.2,12.6,30.07,North,0,0.4,9.2,18,0.00,,,0.00,WUHU216HW,2013-02-18 16:00:00,
2013-02-18 09:05:00,56.7,11.5,30.07,WSW,248,2.5,5.1,17,0.00,,,0.00,WUHU216HW,2013-02-18 16:05:00,
2013-02-18 09:10:00,56.9,13.1,30.07,NNW,338,4.7,6.0,18,0.00,,,0.00,WUHU216HW,2013-02-18 16:10:00,
2013-02-18 09:15:00,56.9,13.1,30.07,NNW,338,6.9,7.6,18,0.00,,,0.00,WUHU216HW,2013-02-18 16:15:00,
2013-02-18 09:20:00,56.5,12.9,30.07,WNW,293,4.0,10.5,18,0.00,,,0.00,WUHU216HW,2013-02-18 16:20:00,
2013-02-18 09:25:00,56.7,13.1,30.06,WSW,248,8.1,10.5,18,0.00,,,0.00,WUHU216HW,2013-02-18 16:25:00,
2013-02-18 09:30:00,56.9,13.1,30.06,NNW,338,2.7,9.8,18,0.00,,,0.00,WUHU216HW,2013-02-18 16:30:00,
2013-02-18 09:35:00,57.2,13.5,30.06,WNW,293,4.3,9.8,18,0.00,,,0.00,WUHU216HW,2013-02-18 16:35:00,
2013-02-18 09:40:00,57.4,12.1,30.06,North,0,4.5,6.3,17,0.00,,,0.00,WUHU216HW,2013-02-18 16:40:00,
2013-02-18 09:46:00,58.0,12.5,30.06,NNE,23,2.5,6.3,17,0.00,,,0.00,WUHU216HW,2013-02-18 16:46:00,
2013-02-18 09:51:00,58.1,12.6,30.06,North,0,2.9,4.7,17,0.00,,,0.00,WUHU216HW,2013-02-18 16:51:00,
2013-02-18 09:56:00,58.3,14.3,30.06,North,0,3.8,5.4,18,0.00,,,0.00,WUHU216HW,2013-02-18 16:56:00,
2013-02-18 10:01:00,58.9,13.2,30.06,South,180,2.9,7.4,17,0.00,,,0.00,WUHU216HW,2013-02-18 17:01:00,
2013-02-18 10:06:00,59.0,15.0,30.06,North,0,2.2,7.4,18,0.00,,,0.00,WUHU216HW,2013-02-18 17:06:00,
2013-02-18 10:11:00,59.4,13.7,30.06,NNW,338,4.7,7.4,17,0.00,,,0.00,WUHU216HW,2013-02-18 17:11:00,
2013-02-18 10:16:00,59.8,14.0,30.06,West,270,6.3,8.9,17,0.00,,,0.00,WUHU216HW,2013-02-18 17:16:00,
2013-02-18 10:21:00,59.4,13.7,30.06,West,270,6.3,8.9,17,0.00,,,0.00,WUHU216HW,2013-02-18 17:21:00,
2013-02-18 10:26:00,59.8,12.4,30.06,North,0,5.4,8.1,16,0.00,,,0.00,WUHU216HW,2013-02-18 17:26:00,
2013-02-18 10:31:00,60.5,13.1,30.06,North,0,4.3,8.1,16,0.00,,,0.00,WUHU216HW,2013-02-18 17:31:00,
2013-02-18 10:36:00,60.7,13.2,30.06,North,0,6.0,12.1,16,0.00,,,0.00,WUHU216HW,2013-02-18 17:36:00,
2013-02-18 10:41:00,60.7,13.2,30.06,North,0,5.1,12.1,16,0.00,,,0.00,WUHU216HW,2013-02-18 17:41:00,
2013-02-18 10:46:00,61.0,12.0,30.05,NNW,338,3.4,9.8,15,0.00,,,0.00,WUHU216HW,2013-02-18 17:46:00,
2013-02-18 10:51:00,61.4,12.3,30.05,WNW,293,10.1,10.5,15,0.00,,,0.00,WUHU216HW,2013-02-18 17:51:00,
2013-02-18 10:56:00,61.9,12.7,30.05,NNW,338,7.8,10.5,15,0.00,,,0.00,WUHU216HW,2013-02-18 17:56:00,
2013-02-18 11:01:00,61.9,9.6,30.05,NNE,23,8.1,10.7,13,0.00,,,0.00,WUHU216HW,2013-02-18 18:01:00,
2013-02-18 11:06:00,61.7,9.4,30.05,NW,315,9.8,13.0,13,0.00,,,0.00,WUHU216HW,2013-02-18 18:06:00,
2013-02-18 11:11:00,61.9,9.6,30.05,NW,315,6.7,13.0,13,0.00,,,0.00,WUHU216HW,2013-02-18 18:11:00,
2013-02-18 11:16:00,61.4,9.1,30.05,NW,315,5.4,12.1,13,0.00,,,0.00,WUHU216HW,2013-02-18 18:16:00,
2013-02-18 11:21:00,61.9,9.6,30.05,WNW,293,5.4,13.0,13,0.00,,,0.00,WUHU216HW,2013-02-18 18:21:00,
2013-02-18 11:26:00,61.9,9.6,30.05,NW,315,10.1,13.0,13,0.00,,,0.00,WUHU216HW,2013-02-18 18:26:00,
2013-02-18 11:31:00,61.7,9.4,30.05,WNW,293,4.7,11.6,13,0.00,,,0.00,WUHU216HW,2013-02-18 18:31:00,
2013-02-18 11:36:00,61.9,9.6,30.04,NW,315,4.5,11.6,13,0.00,,,0.00,WUHU216HW,2013-02-18 18:36:00,
2013-02-18 11:41:00,62.3,9.8,30.04,NNW,338,4.5,11.2,13,0.00,,,0.00,WUHU216HW,2013-02-18 18:41:00,
2013-02-18 11:46:00,62.5,10.0,30.04,NW,315,7.2,11.4,13,0.00,,,0.00,WUHU216HW,2013-02-18 18:46:00,
2013-02-18 11:51:00,62.6,10.1,30.04,WNW,293,3.6,12.3,13,0.00,,,0.00,WUHU216HW,2013-02-18 18:51:00,
2013-02-18 11:56:00,63.4,9.1,30.04,NW,315,5.8,12.3,12,0.00,,,0.00,WUHU216HW,2013-02-18 18:56:00,
2013-02-18 12:01:00,63.7,9.3,30.03,NNW,338,6.3,9.2,12,0.00,,,0.00,WUHU216HW,2013-02-18 19:01:00,
2013-02-18 12:06:00,63.4,9.1,30.03,West,270,10.5,10.5,12,0.00,,,0.00,WUHU216HW,2013-02-18 19:06:00,
2013-02-18 12:12:00,63.4,9.1,30.03,NNW,338,4.0,12.8,12,0.00,,,0.00,WUHU216HW,2013-02-18 19:12:00,
2013-02-18 12:17:00,63.0,8.8,30.02,NNW,338,5.4,12.8,12,0.00,,,0.00,WUHU216HW,2013-02-18 19:17:00,
2013-02-18 12:22:00,63.0,8.8,30.03,NW,315,8.5,11.4,12,0.00,,,0.00,WUHU216HW,2013-02-18 19:22:00,
2013-02-18 12:27:00,63.2,8.9,30.02,NNE,23,6.9,10.7,12,0.00,,,0.00,WUHU216HW,2013-02-18 19:27:00,
2013-02-18 12:32:00,63.5,7.7,30.02,NNE,23,4.0,10.7,11,0.00,,,0.00,WUHU216HW,2013-02-18 19:32:00,
2013-02-18 12:37:00,64.3,8.1,30.02,NW,315,5.4,8.5,11,0.00,,,0.00,WUHU216HW,2013-02-18 19:37:00,
2013-02-18 12:42:00,64.3,8.1,30.02,WSW,248,4.0,11.4,11,0.00,,,0.00,WUHU216HW,2013-02-18 19:42:00,
2013-02-18 12:47:00,64.3,6.6,30.02,WSW,248,9.8,13.4,10,0.00,,,0.00,WUHU216HW,2013-02-18 19:47:00,
2013-02-18 12:52:00,64.6,6.9,30.01,West,270,10.1,13.4,10,0.00,,,0.00,WUHU216HW,2013-02-18 19:52:00,
2013-02-18 12:57:00,64.8,6.9,30.01,WNW,293,7.4,10.1,10,0.00,,,0.00,WUHU216HW,2013-02-18 19:57:00,
2013-02-18 13:02:00,64.3,6.6,30.01,NW,315,12.1,12.1,10,0.00,,,0.00,WUHU216HW,2013-02-18 20:02:00,
2013-02-18 13:07:00,64.3,6.6,30.01,NNW,338,6.5,12.1,10,0.00,,,0.00,WUHU216HW,2013-02-18 20:07:00,
2013-02-18 13:12:00,64.6,6.9,30.01,NW,315,6.9,12.1,10,0.00,,,0.00,WUHU216HW,2013-02-18 20:12:00,
2013-02-18 13:17:00,65.2,7.2,30.01,West,270,9.2,10.5,10,0.00,,,0.00,WUHU216HW,2013-02-18 20:17:00,
2013-02-18 13:22:00,64.4,6.7,30.00,West,270,6.9,15.4,9,0.00,,,0.00,WUHU216HW,2013-02-18 20:22:00,
2013-02-18 13:27:00,64.6,6.9,30.00,WNW,293,12.5,15.4,10,0.00,,,0.00,WUHU216HW,2013-02-18 20:27:00,
2013-02-18 13:32:00,64.4,6.7,30.00,WSW,248,8.7,12.5,10,0.00,,,0.00,WUHU216HW,2013-02-18 20:32:00,
2013-02-18 13:37:00,64.6,6.9,30.00,NNW,338,7.6,10.5,8,0.00,,,0.00,WUHU216HW,2013-02-18 20:37:00,
2013-02-18 13:42:00,64.8,6.9,30.00,NW,315,7.2,12.8,8,0.00,,,0.00,WUHU216HW,2013-02-18 20:42:00,
2013-02-18 13:47:00,64.8,6.9,30.00,North,0,5.6,13.0,8,0.00,,,0.00,WUHU216HW,2013-02-18 20:47:00,
2013-02-18 13:52:00,65.0,7.1,30.00,NW,315,6.5,13.0,10,0.00,,,0.00,WUHU216HW,2013-02-18 20:52:00,
2013-02-18 13:57:00,64.8,6.9,30.00,West,270,7.6,11.4,9,0.00,,,0.00,WUHU216HW,2013-02-18 20:57:00,
2013-02-18 14:02:00,64.3,6.6,29.99,NNW,338,7.4,11.0,10,0.00,,,0.00,WUHU216HW,2013-02-18 21:02:00,
2013-02-18 14:07:00,64.1,6.4,29.99,NW,315,4.7,12.3,10,0.00,,,0.00,WUHU216HW,2013-02-18 21:07:00,
2013-02-18 14:12:00,64.8,6.9,29.99,WNW,293,5.6,12.3,8,0.00,,,0.00,WUHU216HW,2013-02-18 21:12:00,
2013-02-18 14:17:00,64.8,6.9,29.99,WNW,293,5.4,10.1,8,0.00,,,0.00,WUHU216HW,2013-02-18 21:17:00,
2013-02-18 14:22:00,64.8,6.9,29.99,WSW,248,6.3,10.1,10,0.00,,,0.00,WUHU216HW,2013-02-18 21:22:00,
2013-02-18 14:28:00,64.4,6.7,29.99,NNW,338,9.2,11.0,10,0.00,,,0.00,WUHU216HW,2013-02-18 21:28:00,
2013-02-18 14:33:00,64.1,6.4,29.99,West,270,6.5,11.0,10,0.00,,,0.00,WUHU216HW,2013-02-18 21:33:00,
2013-02-18 14:38:00,64.1,6.4,29.99,SSW,203,6.3,11.4,10,0.00,,,0.00,WUHU216HW,2013-02-18 21:38:00,
2013-02-18 14:43:00,64.4,6.7,29.99,WNW,293,2.5,11.4,10,0.00,,,0.00,WUHU216HW,2013-02-18 21:43:00,
2013-02-18 14:48:00,64.6,6.9,29.99,NW,315,4.0,9.2,10,0.00,,,0.00,WUHU216HW,2013-02-18 21:48:00,
2013-02-18 14:52:00,64.8,6.9,29.99,WNW,293,9.8,15.2,10,0.00,,,0.00,WUHU216HW,2013-02-18 21:52:00,
2013-02-18 14:58:00,65.0,8.6,29.99,West,270,5.1,15.2,11,0.00,,,0.00,WUHU216HW,2013-02-18 21:58:00,
2013-02-18 15:03:00,65.3,7.4,29.99,WSW,248,2.5,11.0,10,0.00,,,0.00,WUHU216HW,2013-02-18 22:03:00,
2013-02-18 15:07:00,65.9,7.8,29.99,WNW,293,6.3,7.6,9,0.00,,,0.00,WUHU216HW,2013-02-18 22:07:00,
2013-02-18 15:12:00,65.7,7.7,29.99,North,0,1.8,7.6,10,0.00,,,0.00,WUHU216HW,2013-02-18 22:12:00,
2013-02-18 15:18:00,66.1,7.9,29.99,West,270,2.2,6.3,10,0.00,,,0.00,WUHU216HW,2013-02-18 22:18:00,
2013-02-18 15:23:00,65.9,7.8,29.99,NW,315,7.8,7.8,8,0.00,,,0.00,WUHU216HW,2013-02-18 22:23:00,
2013-02-18 15:28:00,65.2,7.2,30.00,WSW,248,6.3,8.5,9,0.00,,,0.00,WUHU216HW,2013-02-18 22:28:00,
2013-02-18 15:33:00,65.2,7.2,30.00,SW,225,4.0,8.5,10,0.00,,,0.00,WUHU216HW,2013-02-18 22:33:00,
2013-02-18 15:38:00,65.3,7.4,29.99,WNW,293,4.0,8.5,8,0.00,,,0.00,WUHU216HW,2013-02-18 22:38:00,
2013-02-18 15:43:00,65.2,7.2,29.99,West,270,6.3,9.2,8,0.00,,,0.00,WUHU216HW,2013-02-18 22:43:00,
2013-02-18 15:48:00,65.2,7.2,29.99,WSW,248,5.4,9.2,8,0.00,,,0.00,WUHU216HW,2013-02-18 22:48:00,
2013-02-18 15:53:00,65.2,7.2,29.99,SW,225,4.0,7.4,9,0.00,,,0.00,WUHU216HW,2013-02-18 22:53:00,
2013-02-18 15:58:00,65.0,7.1,29.99,West,270,7.8,8.3,8,0.00,,,0.00,WUHU216HW,2013-02-18 22:58:00,
2013-02-18 16:03:00,64.6,6.9,29.99,SW,225,7.4,8.7,10,0.00,,,0.00,WUHU216HW,2013-02-18 23:03:00,
2013-02-18 16:08:00,64.4,6.7,29.99,SW,225,6.5,9.4,10,0.00,,,0.00,WUHU216HW,2013-02-18 23:08:00,
2013-02-18 16:13:00,64.4,6.7,29.99,WSW,248,6.7,10.5,10,0.00,,,0.00,WUHU216HW,2013-02-18 23:13:00,
2013-02-18 16:18:00,64.1,6.4,29.99,WSW,248,5.4,10.5,9,0.00,,,0.00,WUHU216HW,2013-02-18 23:18:00,
2013-02-18 16:23:00,64.1,6.4,29.99,WSW,248,6.9,10.5,10,0.00,,,0.00,WUHU216HW,2013-02-18 23:23:00,
2013-02-18 16:28:00,63.7,6.1,29.99,NNW,338,3.4,10.3,8,0.00,,,0.00,WUHU216HW,2013-02-18 23:28:00,
2013-02-18 16:33:00,63.5,6.0,29.99,SW,225,1.8,10.3,8,0.00,,,0.00,WUHU216HW,2013-02-18 23:33:00,
2013-02-18 16:38:00,63.5,6.0,29.99,NW,315,0.2,7.2,10,0.00,,,0.00,WUHU216HW,2013-02-18 23:38:00,
2013-02-18 16:43:00,63.4,6.0,29.99,WNW,293,3.6,5.4,8,0.00,,,0.00,WUHU216HW,2013-02-18 23:43:00,
2013-02-18 16:48:00,63.0,5.7,29.99,West,270,0.9,5.4,8,0.00,,,0.00,WUHU216HW,2013-02-18 23:48:00,
2013-02-18 16:53:00,63.0,5.7,29.99,NW,315,4.0,5.4,8,0.00,,,0.00,WUHU216HW,2013-02-18 23:53:00,
2013-02-18 16:58:00,62.6,5.4,29.99,WSW,248,4.0,5.4,9,0.00,,,0.00,WUHU216HW,2013-02-18 23:58:00,
2013-02-18 17:03:00,62.5,5.2,29.99,West,270,6.5,6.5,8,0.00,,,0.00,WUHU216HW,2013-02-19 00:03:00,
2013-02-18 17:08:00,62.3,5.1,29.99,West,270,1.1,6.5,10,0.00,,,0.00,WUHU216HW,2013-02-19 00:08:00,
2013-02-18 17:13:00,62.1,5.0,29.98,NW,315,0.9,6.5,8,0.00,,,0.00,WUHU216HW,2013-02-19 00:13:00,
2013-02-18 17:18:00,61.9,4.9,29.99,NW,315,1.6,2.7,8,0.00,,,0.00,WUHU216HW,2013-02-19 00:18:00,
2013-02-18 17:23:00,61.6,4.5,29.99,NW,315,1.6,2.9,10,0.00,,,0.00,WUHU216HW,2013-02-19 00:23:00,
2013-02-18 17:28:00,61.6,4.5,29.99,WNW,293,0.0,2.9,10,0.00,,,0.00,WUHU216HW,2013-02-19 00:28:00,
2013-02-18 17:33:00,61.2,4.2,29.99,WSW,248,2.2,2.2,10,0.00,,,0.00,WUHU216HW,2013-02-19 00:33:00,
2013-02-18 17:38:00,61.0,4.2,29.99,NW,315,0.0,4.0,10,0.00,,,0.00,WUHU216HW,2013-02-19 00:38:00,
2013-02-18 17:43:00,60.8,4.0,29.99,North,0,0.0,4.0,10,0.00,,,0.00,WUHU216HW,2013-02-19 00:43:00,
2013-02-18 17:48:00,60.5,3.7,29.99,North,0,0.7,1.1,10,0.00,,,0.00,WUHU216HW,2013-02-19 00:48:00,
2013-02-18 17:53:00,60.1,3.4,29.99,NNW,338,0.4,2.0,10,0.00,,,0.00,WUHU216HW,2013-02-19 00:53:00,
2013-02-18 17:58:00,59.8,4.7,29.99,North,0,0.4,2.0,11,0.00,,,0.00,WUHU216HW,2013-02-19 00:58:00,
2013-02-18 18:03:00,59.4,4.3,29.99,NNW,338,0.0,1.1,11,0.00,,,0.00,WUHU216HW,2013-02-19 01:03:00,
2013-02-18 18:08:00,59.0,4.1,29.99,NNW,338,0.0,0.2,11,0.00,,,0.00,WUHU216HW,2013-02-19 01:08:00,
2013-02-18 18:13:00,58.7,3.8,29.99,NNW,338,0.0,0.2,11,0.00,,,0.00,WUHU216HW,2013-02-19 01:13:00,
2013-02-18 18:18:00,58.5,3.6,29.99,NNW,338,0.4,1.6,11,0.00,,,0.00,WUHU216HW,2013-02-19 01:18:00,
2013-02-18 18:23:00,58.3,3.5,29.99,NNW,338,0.0,1.6,11,0.00,,,0.00,WUHU216HW,2013-02-19 01:23:00,
2013-02-18 18:28:00,58.1,3.3,29.99,NW,315,0.9,1.3,11,0.00,,,0.00,WUHU216HW,2013-02-19 01:28:00,
2013-02-18 18:33:00,58.0,4.8,29.99,NW,315,0.0,1.3,12,0.00,,,0.00,WUHU216HW,2013-02-19 01:33:00,
2013-02-18 18:38:00,57.8,4.6,30.00,WSW,248,0.0,1.1,12,0.00,,,0.00,WUHU216HW,2013-02-19 01:38:00,
2013-02-18 18:43:00,57.6,4.5,30.00,WSW,248,0.0,1.1,12,0.00,,,0.00,WUHU216HW,2013-02-19 01:43:00,
2013-02-18 18:48:00,57.2,4.1,30.00,WSW,248,0.0,0.9,12,0.00,,,0.00,WUHU216HW,2013-02-19 01:48:00,
2013-02-18 18:53:00,56.9,4.0,30.00,WSW,248,0.0,0.9,12,0.00,,,0.00,WUHU216HW,2013-02-19 01:53:00,
2013-02-18 18:58:00,56.5,3.7,30.00,WSW,248,0.0,0.0,12,0.00,,,0.00,WUHU216HW,2013-02-19 01:58:00,
2013-02-18 19:03:00,56.2,3.4,30.00,WSW,248,0.0,0.0,12,0.00,,,0.00,WUHU216HW,2013-02-19 02:03:00,
2013-02-18 19:08:00,55.8,3.2,30.00,WSW,248,0.0,0.0,12,0.00,,,0.00,WUHU216HW,2013-02-19 02:08:00,
2013-02-18 19:13:00,55.6,4.5,30.00,NE,45,0.7,1.1,13,0.00,,,0.00,WUHU216HW,2013-02-19 02:13:00,
2013-02-18 19:18:00,55.3,4.2,30.00,ENE,68,0.4,1.8,13,0.00,,,0.00,WUHU216HW,2013-02-19 02:18:00,
2013-02-18 19:23:00,55.1,4.2,30.00,North,0,0.0,1.8,13,0.00,,,0.00,WUHU216HW,2013-02-19 02:23:00,
2013-02-18 19:28:00,54.7,3.8,29.99,North,0,0.0,1.1,13,0.00,,,0.00,WUHU216HW,2013-02-19 02:28:00,
2013-02-18 19:33:00,54.4,2.0,29.99,North,0,0.0,1.1,12,0.00,,,0.00,WUHU216HW,2013-02-19 02:33:00,
2013-02-18 19:38:00,54.2,1.9,30.00,NW,315,0.0,1.3,12,0.00,,,0.00,WUHU216HW,2013-02-19 02:38:00,
2013-02-18 19:43:00,54.0,1.7,30.00,NW,315,0.0,1.3,12,0.00,,,0.00,WUHU216HW,2013-02-19 02:43:00,
2013-02-18 19:48:00,53.6,2.9,30.00,NW,315,0.0,0.0,13,0.00,,,0.00,WUHU216HW,2013-02-19 02:48:00,
2013-02-18 19:53:00,53.3,4.1,30.00,NW,315,0.0,0.0,14,0.00,,,0.00,WUHU216HW,2013-02-19 02:53:00,
2013-02-18 19:58:00,53.1,4.0,30.00,WNW,293,0.0,0.0,14,0.00,,,0.00,WUHU216HW,2013-02-19 02:58:00,
2013-02-18 20:03:00,52.7,3.7,30.00,NW,315,0.0,0.0,14,0.00,,,0.00,WUHU216HW,2013-02-19 03:03:00,
2013-02-18 20:09:00,52.6,3.6,30.00,ENE,68,0.9,0.9,14,0.00,,,0.00,WUHU216HW,2013-02-19 03:09:00,
2013-02-18 20:14:00,52.6,3.6,30.00,SE,135,0.9,1.8,14,0.00,,,0.00,WUHU216HW,2013-02-19 03:14:00,
2013-02-18 20:19:00,52.6,3.6,30.00,SE,135,0.0,1.8,14,0.00,,,0.00,WUHU216HW,2013-02-19 03:19:00,
2013-02-18 20:24:00,52.4,3.4,30.01,SE,135,0.0,0.9,14,0.00,,,0.00,WUHU216HW,2013-02-19 03:24:00,
2013-02-18 20:29:00,52.0,3.2,30.01,North,0,0.0,0.0,14,0.00,,,0.00,WUHU216HW,2013-02-19 03:29:00,
2013-02-18 20:34:00,52.0,3.2,30.01,NNW,338,0.7,0.7,14,0.00,,,0.00,WUHU216HW,2013-02-19 03:34:00,
2013-02-18 20:39:00,51.8,3.0,30.01,NNW,338,0.0,0.7,14,0.00,,,0.00,WUHU216HW,2013-02-19 03:39:00,
2013-02-18 20:44:00,51.5,2.7,30.01,NNW,338,0.0,0.7,14,0.00,,,0.00,WUHU216HW,2013-02-19 03:44:00,
2013-02-18 20:49:00,51.3,4.1,30.01,NNW,338,0.0,0.0,15,0.00,,,0.00,WUHU216HW,2013-02-19 03:49:00,
2013-02-18 20:54:00,50.8,3.6,30.01,SSE,158,0.4,1.1,15,0.00,,,0.00,WUHU216HW,2013-02-19 03:54:00,
2013-02-18 20:59:00,50.4,3.3,30.02,SSE,158,0.0,1.1,15,0.00,,,0.00,WUHU216HW,2013-02-19 03:59:00,
2013-02-18 21:04:00,50.2,3.3,30.02,SSE,158,0.0,0.4,15,0.00,,,0.00,WUHU216HW,2013-02-19 04:04:00,
2013-02-18 21:09:00,49.9,2.9,30.02,SSE,158,0.0,0.0,15,0.00,,,0.00,WUHU216HW,2013-02-19 04:09:00,
2013-02-18 21:14:00,49.5,4.2,30.02,SE,135,0.0,0.4,16,0.00,,,0.00,WUHU216HW,2013-02-19 04:14:00,
2013-02-18 21:19:00,49.3,4.0,30.02,East,90,0.0,0.9,16,0.00,,,0.00,WUHU216HW,2013-02-19 04:19:00,
2013-02-18 21:24:00,49.1,3.9,30.02,East,90,0.0,0.9,16,0.00,,,0.00,WUHU216HW,2013-02-19 04:24:00,
2013-02-18 21:29:00,49.0,3.7,30.02,East,90,0.0,0.0,16,0.00,,,0.00,WUHU216HW,2013-02-19 04:29:00,
2013-02-18 21:34:00,48.8,3.5,30.02,East,90,0.0,0.2,16,0.00,,,0.00,WUHU216HW,2013-02-19 04:34:00,
2013-02-18 21:39:00,48.8,5.1,30.03,ESE,113,0.7,0.7,17,0.00,,,0.00,WUHU216HW,2013-02-19 04:39:00,
2013-02-18 21:44:00,48.6,3.4,30.03,ESE,113,0.0,0.7,16,0.00,,,0.00,WUHU216HW,2013-02-19 04:44:00,
2013-02-18 21:49:00,48.4,3.2,30.02,ESE,113,0.0,0.7,16,0.00,,,0.00,WUHU216HW,2013-02-19 04:49:00,
2013-02-18 21:54:00,48.4,3.2,30.02,ESE,113,0.0,0.0,16,0.00,,,0.00,WUHU216HW,2013-02-19 04:54:00,
2013-02-18 21:59:00,48.2,3.1,30.03,ESE,113,0.0,0.0,16,0.00,,,0.00,WUHU216HW,2013-02-19 04:59:00,
2013-02-18 22:00:00,48.2,3.1,30.03,ESE,113,0.0,0.0,16,0.00,,,0.00,WUHU216HW,2013-02-19 05:00:00,
2013-02-18 22:01:00,48.1,3.0,30.03,ESE,113,0.0,0.0,16,0.00,,,0.00,WUHU216HW,2013-02-19 05:01:00,
2013-02-18 22:06:00,47.9,2.8,30.03,SE,135,0.0,0.7,16,0.00,,,0.00,WUHU216HW,2013-02-19 05:06:00,
2013-02-18 22:11:00,47.9,2.8,30.03,SSW,203,0.4,0.7,16,0.00,,,0.00,WUHU216HW,2013-02-19 05:11:00,
2013-02-18 22:16:00,47.9,2.8,30.04,SSW,203,0.0,0.4,16,0.00,,,0.00,WUHU216HW,2013-02-19 05:16:00,
2013-02-18 22:21:00,47.9,2.8,30.04,SSW,203,0.0,0.4,16,0.00,,,0.00,WUHU216HW,2013-02-19 05:21:00,
2013-02-18 22:26:00,47.7,2.7,30.04,SW,225,1.1,2.0,16,0.00,,,0.00,WUHU216HW,2013-02-19 05:26:00,
2013-02-18 22:31:00,47.9,4.3,30.04,West,270,1.1,2.0,17,0.00,,,0.00,WUHU216HW,2013-02-19 05:31:00,
2013-02-18 22:36:00,47.9,4.3,30.04,SW,225,0.2,1.8,17,0.00,,,0.00,WUHU216HW,2013-02-19 05:36:00,
2013-02-18 22:41:00,47.9,4.3,30.04,SW,225,0.7,1.8,17,0.00,,,0.00,WUHU216HW,2013-02-19 05:41:00,
2013-02-18 22:46:00,47.9,2.8,30.04,SE,135,0.0,1.8,16,0.00,,,0.00,WUHU216HW,2013-02-19 05:46:00,
2013-02-18 22:51:00,47.7,4.1,30.04,SE,135,0.7,1.1,17,0.00,,,0.00,WUHU216HW,2013-02-19 05:51:00,
2013-02-18 22:56:00,47.7,2.7,30.04,SSE,158,0.4,1.3,16,0.00,,,0.00,WUHU216HW,2013-02-19 05:56:00,
2013-02-18 23:01:00,47.7,4.1,30.04,SSE,158,0.0,1.3,17,0.00,,,0.00,WUHU216HW,2013-02-19 06:01:00,
2013-02-18 23:06:00,47.5,4.0,30.04,SSW,203,1.1,1.3,17,0.00,,,0.00,WUHU216HW,2013-02-19 06:06:00,
2013-02-18 23:11:00,47.7,4.1,30.04,SSW,203,0.7,1.8,17,0.00,,,0.00,WUHU216HW,2013-02-19 06:11:00,
2013-02-18 23:16:00,47.7,4.1,30.03,SW,225,0.0,1.8,17,0.00,,,0.00,WUHU216HW,2013-02-19 06:16:00,
2013-02-18 23:21:00,47.9,4.3,30.03,South,180,1.6,1.8,17,0.00,,,0.00,WUHU216HW,2013-02-19 06:21:00,
2013-02-18 23:26:00,48.1,4.4,30.03,SW,225,1.6,1.8,17,0.00,,,0.00,WUHU216HW,2013-02-19 06:26:00,
2013-02-18 23:31:00,48.4,4.7,30.03,South,180,1.6,2.5,17,0.00,,,0.00,WUHU216HW,2013-02-19 06:31:00,
2013-02-18 23:36:00,48.6,4.9,30.04,SW,225,1.1,2.5,17,0.00,,,0.00,WUHU216HW,2013-02-19 06:36:00,
2013-02-18 23:41:00,48.6,4.9,30.03,WSW,248,0.7,1.8,17,0.00,,,0.00,WUHU216HW,2013-02-19 06:41:00,
2013-02-18 23:46:00,48.6,6.4,30.04,West,270,0.7,1.3,18,0.00,,,0.00,WUHU216HW,2013-02-19 06:46:00,
2013-02-18 23:51:00,48.4,6.2,30.03,SW,225,0.4,1.8,18,0.00,,,0.00,WUHU216HW,2013-02-19 06:51:00,
2013-02-18 23:56:00,48.2,6.0,30.03,South,180,1.8,2.0,18,0.00,,,0.00,WUHU216HW,2013-02-19 06:56:00,